This is the latest recevied weather packets stored in our database for station/object KD2SIG. If no packets are shown the sender has not sent any weather packets the latest 10 day(s).
| Time | Temp. | Humidity | Pressure | Rain* | Wind** | Luminosity | Snow |
|---|---|---|---|---|---|---|---|
| 1777939943 | 16.67° C | 58% | 1003.8 hPa | 0 mm | - | 0 W/m² | - |
| 1777939640 | 17.22° C | 58% | 1003.9 hPa | 0 mm | - | 1 W/m² | - |
| 1777939338 | 17.78° C | 57% | 1003.7 hPa | 0 mm | - | 2 W/m² | - |
| 1777939034 | 17.78° C | 56% | 1003.6 hPa | 0 mm | - | 5 W/m² | - |
| 1777938730 | 18.33° C | 55% | 1003.6 hPa | 0 mm | - | 7 W/m² | - |
| 1777938428 | 18.89° C | 53% | 1003.6 hPa | 0 mm | - | 10 W/m² | - |
| 1777938125 | 18.89° C | 53% | 1003.4 hPa | 0 mm | - | 14 W/m² | - |
| 1777937821 | 18.89° C | 51% | 1003.6 hPa | 0 mm | - | 19 W/m² | - |
| 1777937517 | 19.44° C | 52% | 1003.7 hPa | 0 mm | - | 22 W/m² | - |
| 1777937214 | 19.44° C | 52% | 1003.7 hPa | 0 mm | - | 26 W/m² | - |
| 1777936911 | 20° C | 51% | 1003.6 hPa | 0 mm | - | 31 W/m² | - |
| 1777936608 | 20° C | 51% | 1003.6 hPa | 0 mm | - | 38 W/m² | - |
| 1777936304 | 20° C | 50% | 1003.7 hPa | 0 mm | - | 45 W/m² | - |
| 1777936001 | 20° C | 49% | 1003.8 hPa | 0 mm | - | 48 W/m² | - |
| 1777935700 | 20° C | 49% | 1003.8 hPa | 0 mm | - | 44 W/m² | - |
| 1777935397 | 20° C | 48% | 1003.8 hPa | 0 mm | - | 41 W/m² | - |
| 1777935093 | 20.56° C | 48% | 1004 hPa | 0 mm | - | 45 W/m² | - |
| 1777934790 | 20.56° C | 46% | 1003.8 hPa | 0 mm | - | 53 W/m² | - |
| 1777934487 | 21.11° C | 46% | 1003.7 hPa | 0 mm | - | 91 W/m² | - |
| 1777934184 | 21.67° C | 46% | 1003.7 hPa | 0 mm | - | 111 W/m² | - |
| 1777933880 | 21.67° C | 47% | 1003.9 hPa | 0 mm | - | 128 W/m² | - |
| 1777933577 | 21.67° C | 47% | 1004 hPa | 0 mm | - | 135 W/m² | - |
| 1777933274 | 21.67° C | 47% | 1003.9 hPa | 0 mm | - | 160 W/m² | - |
| 1777932971 | 21.11° C | 47% | 1004.1 hPa | 0 mm | - | 163 W/m² | - |
| 1777932668 | 21.11° C | 46% | 1004 hPa | 0 mm | - | 169 W/m² | - |
* Rain latest hour (hover to see other rain measurements)
** Current wind speed in m/s (hover to see current wind gust speed)